EHI
0 2 6 6 6 6 6 3 1 2 2 1 1 1 1 0 1 1 1 1 1 1 1 4 4 2 1 1 0 0 0 0 0 0 0 0 0 0 0 0 0 0 0
1 2 5 5 5 5 5 3 2 3 3 3 2 2 1 1 2 3 3 3 2 1 2 3 3 2 0 0 0 0 0 0 0 0 0 1 1 0 0 0 0 0 0
2 3 4 4 4 3 4 4 4 4 4 5 6 5 4 3 3 4 4 4 3 2 2 2 2 1 0 0 0 0 0 0 1 1 1 1 1 0 0 0 0 0 0
2 3 3 4 3 3 4 5 6 4 4 6 7 7 6 4 4 5 4 4 3 3 2 1 1 0 0 0 0 1 1 1 1 1 1 1 1 0 0 0 0 0 0
1 2 3 3 3 3 4 5 5 4 4 5 6 7 6 4 3 3 3 3 3 3 2 0 0 0 0 0 0 1 1 1 1 0 0 0 0 0 0 0 0 0 0
0 1 2 3 3 3 2 3 3 3 2 4 5 5 5 3 1 1 3 3 2 2 1 0 0 0 0 1 0 0 1 1 0 0 0 0 0 0 0 0 0 0 0
0 0 1 3 3 3 1 1 1 1 1 2 3 3 3 3 1 1 2 2 1 0 0 0 0 0 0 0 0 0 1 1 0 0 0 0 0 0 0 0 0 0 0
0 0 1 2 3 3 2 1 0 0 1 1 1 2 2 2 2 1 1 1 0 0 0 0 0 1 1 1 1 1 2 2 1 0 1 1 1 0 0 0 0 0 0
0 1 2 2 1 2 2 1 0 0 0 0 0 0 1 2 3 1 1 0 0 0 0 0 0 0 1 2 2 2 2 2 1 0 1 1 1 0 0 0 0 0 0
1 2 3 2 1 1 1 0 0 0 0 0 0 0 1 2 2 2 2 1 0 0 0 0 0 0 0 1 1 2 2 1 1 0 0 0 0 0 0 0 0 0 0
2 2 2 2 1 0 0 0 0 0 0 0 0 0 0 1 1 2 2 1 0 0 0 0 0 0 0 0 0 1 1 1 0 0 0 0 0 1 1 1 0 0 0
1 1 1 1 1 0 0 0 0 0 0 0 0 0 0 0 0 1 1 0 0 0 0 0 0 1 1 0 0 0 0 0 0 0 0 0 1 2 2 1 0 0 0
0 0 0 0 0 0 0 0 0 0 0 0 0 0 0 0 0 0 0 0 0 0 0 0 0 1 1 0 0 0 0 0 0 1 2 2 1 1 1 1 0 0 0
0 0 0 0 0 0 0 0 0 0 0 0 0 0 0 0 0 0 0 0 0 0 0 0 0 1 1 0 0 0 0 1 1 2 3 3 1 0 0 1 1 1 1
0 0 0 0 0 0 0 0 0 0 0 0 0 0 0 0 0 0 0 0 0 0 0 0 0 0 0 0 0 0 0 1 3 3 4 3 1 0 0 0 1 2 3
0 0 0 0 0 0 0 0 0 0 0 0 0 0 0 0 0 0 0 0 0 0 0 0 1 0 0 0 0 0 0 1 3 4 4 3 2 1 1 1 2 4 5
0 0 0 0 0 0 0 0 0 0 0 0 0 0 0 0 0 0 1 1 1 0 0 0 0 0 0 0 0 0 0 1 3 4 4 4 3 3 3 4 4 5 6
0 0 0 0 0 0 0 0 0 1 1 0 0 0 0 0 1 1 2 2 2 1 0 0 0 0 0 0 0 0 0 1 2 3 4 5 5 5 5 5 4 5 5
0 0 0 0 0 0 0 1 1 2 2 1 0 1 1 1 2 2 3 3 2 1 0 0 0 0 1 1 1 0 1 1 2 4 6 7 7 7 6 4 3 3 3
1 1 1 0 0 1 1 3 3 3 2 1 1 2 3 3 2 3 3 3 1 0 0 0 1 1 2 2 2 1 1 2 4 6 6 6 6 5 5 4 2 1 2
1 2 2 1 1 2 3 4 4 4 3 2 2 3 3 3 2 2 3 2 1 0 0 1 2 3 3 4 4 3 3 4 6 6 6 6 4 3 4 4 3 2 2
2 2 2 1 1 2 3 4 4 3 2 2 2 2 2 2 2 3 3 2 1 1 0 1 2 2 3 4 5 5 4 5 6 6 6 4 3 3 2 2 2 2 2
2 2 2 1 1 1 1 2 2 2 1 1 1 0 0 1 3 4 4 2 0 0 0 0 1 1 1 2 3 4 4 4 4 4 3 2 1 1 1 0 1 1 1
1 1 1 1 0 0 0 1 1 1 0 0 0 0 0 0 2 3 2 1 0 0 0 0 0 0 0 1 2 2 2 2 1 1 1 0 0 0 0 0 1 1 1
0 0 0 0 0 0 0 0 0 0 0 0 0 0 0 0 0 1 1 0 0 0 0 0 0 1 0 0 1 1 1 1 0 0 0 0 0 0 0 0 1 2 3
0 0 0 0 0 0 0 0 0 0 0 0 0 0 0 0 0 0 0 0 0 0 0 0 0 1 0 0 0 0 0 0 0 0 0 0 0 0 0 0 1 2 3
Wind_Speed
0 1 5 8 9 11 12 13 13 13 13 14 14 14 15 15 15 15 15 15 15 15 14 14 14 14 14 14 13 13 13 12 11 11 11 11 11 11 11 11 10 8 12
2 2 6 8 10 11 12 12 13 13 13 13 14 14 15 15 15 15 15 15 15 15 14 13 13 13 13 13 13 12 12 12 11 11 11 10 10 10 10 10 9 7 11
4 3 5 8 10 11 11 12 12 12 13 13 13 14 14 14 14 15 15 14 14 14 13 13 13 12 12 12 12 12 11 11 10 10 9 6 7 9 9 9 9 10 10
4 3 4 8 9 11 11 11 12 12 12 12 13 13 13 13 14 14 14 14 13 13 12 12 12 11 11 11 11 11 11 10 10 9 5 4 5 8 9 8 9 9 9
4 3 4 8 9 10 11 11 12 12 12 12 12 12 12 13 13 14 14 13 12 12 11 11 11 11 10 10 10 10 10 9 9 7 4 4 3 7 8 8 8 9 9
4 3 3 8 9 9 10 11 11 12 12 12 12 12 12 12 12 13 13 12 11 11 10 10 9 9 8 9 9 8 9 9 7 4 4 3 3 6 8 8 8 8 8
3 2 3 7 8 9 9 10 11 11 11 11 11 11 11 12 12 12 12 11 10 10 9 9 8 8 7 8 8 8 8 8 5 4 3 2 3 5 7 7 7 7 7
4 2 2 5 7 8 9 10 10 10 10 10 10 10 10 11 11 11 10 10 9 8 8 7 8 7 7 7 7 7 7 6 5 4 3 2 3 5 6 7 7 7 7
3 3 2 2 3 6 8 9 10 10 9 9 9 9 9 10 10 9 9 8 8 7 7 6 6 6 7 7 6 6 6 6 4 3 4 2 4 6 6 7 7 7 7
3 2 2 2 2 2 3 7 9 9 9 9 8 8 8 8 9 8 7 7 7 7 7 6 6 6 5 5 5 4 4 5 4 4 2 3 6 7 7 7 7 7 7
2 1 1 2 2 2 2 4 6 7 7 7 6 7 6 3 3 4 5 6 6 6 5 5 5 5 4 3 4 3 3 2 3 2 2 5 7 7 7 7 7 8 8
3 2 1 2 2 2 2 3 2 2 3 3 3 3 3 2 2 2 3 4 4 4 4 3 4 4 3 1 1 2 1 2 3 2 3 7 7 7 8 7 8 8 8
3 2 2 1 2 2 2 2 2 2 2 2 3 3 3 2 1 1 1 1 1 2 1 1 1 1 1 1 1 1 1 2 2 2 3 7 7 8 8 8 8 8 8
3 3 2 2 2 2 2 2 2 2 2 2 2 3 2 1 1 1 1 1 1 1 1 1 1 1 1 1 1 1 2 2 2 2 3 7 8 8 8 8 8 8 8
4 3 2 3 2 2 2 1 2 2 2 2 2 2 2 2 2 1 1 1 0 1 1 1 1 1 1 1 1 2 2 3 3 3 3 7 8 8 8 8 8 9 8
4 4 3 3 3 3 2 2 2 2 2 2 1 2 2 2 2 1 1 1 0 1 1 1 1 1 1 1 2 2 3 3 3 3 3 4 7 8 8 9 10 9 9
4 3 3 3 3 4 3 2 2 2 2 1 1 2 2 2 2 2 1 1 1 1 1 1 1 0 0 1 2 2 2 2 3 4 3 3 4 6 8 9 9 10 10
4 4 3 3 4 4 3 2 2 2 2 1 1 1 2 3 3 2 1 1 1 1 1 1 1 0 0 1 1 2 2 2 3 3 3 4 3 3 6 8 9 9 10
4 4 4 3 4 4 3 2 2 2 1 1 1 1 1 2 3 2 2 1 1 1 1 2 1 1 1 1 1 1 1 2 2 3 3 4 4 4 3 5 8 9 10
4 4 4 3 3 3 3 3 2 2 1 0 0 1 2 2 3 3 2 2 2 1 1 1 1 1 1 1 1 2 1 2 2 2 3 3 3 4 4 4 4 5 8
4 4 3 3 2 3 2 2 2 1 1 0 1 1 1 2 2 2 2 2 2 2 1 2 1 1 0 1 1 1 2 1 1 2 2 2 3 4 4 4 4 3 3
4 4 3 3 3 2 2 2 2 2 1 1 0 0 0 1 2 2 3 2 2 2 2 2 2 1 0 1 1 1 2 3 2 1 1 2 2 2 3 4 3 4 3
5 5 4 3 3 3 3 2 2 2 2 1 1 1 1 0 1 2 2 2 2 2 2 2 2 3 1 0 1 1 1 2 2 2 1 1 1 1 2 2 3 3 4
6 5 4 3 3 2 3 3 3 2 1 1 0 0 1 1 0 1 2 3 2 2 2 2 2 2 2 1 1 1 2 2 1 2 2 2 2 2 2 2 3 3 3
6 5 4 4 3 2 3 3 3 2 1 0 0 0 1 1 1 0 1 2 2 2 2 1 1 2 2 2 2 1 1 1 1 2 3 2 2 2 2 3 2 2 3
5 5 5 4 3 3 3 3 3 3 2 1 1 0 0 1 1 1 1 2 2 2 2 2 2 2 2 3 2 2 2 2 2 2 3 3 3 2 2 2 2 2 2
Wind_Direction
192 160 139 129 128 127 124 124 124 125 125 127 129 128 129 131 133 137 137 134 133 132 130 130 130 129 129 128 128 126 126 124 122 121 122 121 119 117 117 116 113 112 113
151 150 139 130 129 129 127 125 123 122 124 126 127 128 130 132 134 134 135 135 135 133 131 131 131 130 129 127 126 127 127 124 123 123 124 123 122 120 119 117 117 120 121
124 133 135 131 130 130 128 126 125 124 124 125 124 126 129 133 134 136 136 135 134 133 131 131 131 129 129 129 127 126 125 123 123 121 118 115 122 124 123 122 122 123 124
114 109 128 129 128 129 128 128 129 129 126 125 125 127 131 134 137 137 136 136 137 135 134 133 131 130 128 129 128 127 126 124 122 119 106 112 122 129 129 130 131 131 129
104 101 127 131 128 129 131 133 133 132 129 127 126 128 132 135 138 138 138 140 139 137 136 134 133 131 128 129 128 128 128 126 124 114 105 106 114 134 136 139 141 139 136
102 105 133 137 132 132 134 135 137 134 132 131 130 132 134 136 139 140 140 141 140 139 138 136 136 133 132 132 132 132 129 124 121 112 112 116 128 146 147 147 147 146 142
105 102 125 136 136 135 135 135 137 135 135 136 136 135 137 139 141 142 140 139 138 137 137 139 138 135 135 137 139 139 139 134 125 125 128 134 154 159 155 153 152 150 148
113 99 100 130 134 137 138 138 138 137 138 139 138 138 138 141 142 141 140 139 138 139 141 141 139 140 143 143 144 144 145 143 140 146 143 152 172 166 161 156 153 152 151
100 93 82 93 127 138 139 139 139 139 139 139 139 138 137 140 144 143 145 146 143 140 144 146 146 147 146 147 151 155 153 154 148 156 171 172 187 180 173 169 166 166 165
95 89 81 68 74 104 127 142 145 144 142 143 145 143 141 140 141 147 149 152 147 145 150 157 157 152 149 155 161 157 152 153 158 167 175 190 192 188 184 180 178 179 179
114 101 99 90 90 103 120 144 146 146 144 145 145 143 133 111 118 138 154 156 154 152 156 158 156 154 153 159 162 156 142 156 169 177 186 203 202 202 198 192 190 190 191
160 159 129 118 113 105 123 110 108 120 119 111 104 115 106 100 108 127 149 163 161 155 156 160 155 157 133 119 150 147 144 171 182 192 204 210 209 212 209 203 202 203 203
168 156 142 130 113 110 108 110 104 101 101 103 111 113 107 99 96 91 96 145 133 135 118 132 121 103 114 139 156 178 197 188 193 210 215 215 213 215 214 212 213 212 210
151 162 150 139 122 115 111 116 115 116 119 123 126 127 123 119 117 116 112 105 82 95 119 123 113 114 134 159 200 223 229 214 209 213 220 217 216 221 224 220 219 219 218
158 170 161 153 147 133 117 126 123 129 135 139 133 141 145 146 149 137 130 132 154 145 162 174 168 167 179 218 240 238 247 234 223 214 217 219 222 226 232 233 229 228 226
172 176 163 158 159 141 138 140 135 138 138 140 146 162 158 157 158 157 170 178 192 191 182 181 191 201 210 220 256 254 249 239 229 221 216 222 226 230 234 237 239 237 234
173 165 158 159 144 140 145 152 147 138 132 150 168 167 164 166 169 167 172 209 223 191 159 160 160 149 251 258 275 280 261 241 232 225 220 220 226 235 238 240 242 243 240
159 150 153 152 135 139 142 139 127 118 131 158 171 161 175 179 170 160 174 214 205 164 159 176 163 144 289 283 282 289 283 257 246 232 220 218 221 232 242 246 246 246 246
154 144 136 127 133 141 135 119 115 113 120 147 160 161 186 182 171 165 182 197 176 163 168 194 160 162 218 279 277 275 271 255 251 244 228 223 221 225 236 250 252 249 248
141 135 131 125 124 124 111 100 94 89 82 91 158 183 183 178 172 166 171 178 166 164 171 166 154 158 191 236 280 297 287 269 256 247 239 230 224 227 229 241 249 253 253
129 129 133 130 124 117 109 119 121 137 177 211 225 212 195 184 168 159 164 161 164 171 173 154 143 144 169 113 69 337 322 292 267 258 249 239 240 240 235 235 238 244 256
156 155 148 151 145 142 136 132 136 135 154 185 266 354 241 188 177 172 169 170 169 165 154 153 150 134 119 95 102 28 336 338 330 302 267 238 246 244 246 247 239 238 250
170 175 175 170 165 162 145 114 100 77 52 40 39 20 341 193 161 158 164 162 169 170 180 188 172 166 189 224 164 163 181 273 316 319 301 289 286 266 262 261 253 252 252
185 176 168 161 158 156 146 141 143 148 165 212 203 262 359 24 88 142 152 159 164 169 185 200 182 183 176 217 237 220 207 192 217 309 311 303 300 282 276 270 268 259 256
180 173 170 156 156 161 154 156 151 159 182 172 100 45 354 348 1 124 157 153 163 177 190 193 176 191 197 205 208 203 214 218 206 218 280 306 313 285 275 270 268 267 260
174 169 164 160 170 171 167 167 170 178 176 164 189 224 299 333 337 328 166 164 173 184 199 197 198 203 210 216 213 200 193 197 207 211 243 278 292 292 286 268 259 259 257